Date_and_time,latitude,longitude,wind_speed,RelWindDirFrom,WindDirFrom,air_pressure,air_temperature,relative_humidity,Temp,platform_speed_wrt_ground,air_pressure_at_mean_sea_level,platform_orientation
2019-05-26 23:40,50.6304366666667,-96.9807666666667,7.3,8.4,8,995.80,11.7,39,12.98,0.0,1022.79,360.0
2019-05-26 23:50,50.63044,-96.9807633333333,8.0,9.7,11,995.78,11.8,38,12.97,0.0,1022.76,360.0
2019-05-27 00:00,50.63044,-96.9807616666667,8.3,9.5,11,995.73,11.8,40,12.98,0.0,1022.69,90.0
2019-05-27 00:10,50.6304416666667,-96.9807566666667,8.3,9.6,11,995.64,12.0,41,12.99,0.0,1022.59,90.0
2019-05-27 00:20,50.630445,-96.9807583333333,8.5,9.9,9,995.57,12.0,39,13.00,0.0,1022.50,90.0
2019-05-27 00:30,50.6304433333333,-96.9807533333333,8.0,9.6,6,995.51,12.2,37,13.01,0.0,1022.43,90.0
2019-05-27 00:40,50.630445,-96.9807566666667,7.4,9.1,9,995.46,12.3,42,13.02,0.0,1022.37,90.0
2019-05-27 00:50,50.6304466666667,-96.9807616666667,6.7,7.9,1,995.47,12.4,39,13.02,0.0,1022.36,90.0
2019-05-27 01:00,50.6304466666667,-96.9807633333333,6.6,8.0,3,995.44,12.5,38,13.03,0.0,1022.32,360.0
2019-05-27 01:10,50.630445,-96.9807716666667,5.6,7.1,6,995.39,12.7,40,13.02,0.0,1022.27,360.0
2019-05-27 01:20,50.6304466666667,-96.9807716666667,5.3,6.8,1,995.34,12.8,39,13.02,0.0,1022.21,360.0
2019-05-27 01:30,50.630435,-96.9807516666667,6.3,8.1,2,995.24,12.6,44,13.01,0.0,1022.11,360.0
2019-05-27 01:40,50.6304433333333,-96.9807583333333,7.3,8.9,2,995.19,12.3,45,13.01,0.0,1022.06,360.0
2019-05-27 01:50,50.6304466666667,-96.98076,7.3,8.8,0,995.17,12.2,46,13.01,0.0,1022.04,360.0
2019-05-27 02:00,50.6304466666667,-96.98074,7.7,9.1,3,995.12,12.2,49,13.01,0.0,1021.99,90.0
2019-05-27 02:10,50.63044,-96.98076,8.5,10.3,3,995.12,11.9,50,13.02,0.0,1022.00,90.0
2019-05-27 02:20,50.6304366666667,-96.9807633333333,8.6,10.6,1,995.19,11.7,50,13.02,0.0,1022.07,90.0
2019-05-27 02:30,50.63044,-96.9807633333333,7.9,9.7,355,995.17,11.7,49,13.00,0.0,1022.05,90.0
2019-05-27 02:40,50.63044,-96.9807633333333,7.7,10.9,354,995.13,11.6,51,12.96,0.0,1022.01,90.0
2019-05-27 02:50,50.630415,-96.9807516666667,7.5,12.1,352,995.10,11.4,53,12.93,0.0,1021.98,90.0
2019-05-27 03:00,50.6304466666667,-96.9807583333333,11.8,14.7,7,995.05,11.5,56,12.92,0.0,1021.91,38.0
2019-05-27 03:10,50.6304466666667,-96.9807633333333,11.0,13.2,14,995.20,11.4,58,12.90,0.0,1022.07,38.0
2019-05-27 03:20,50.6304316666667,-96.980755,10.5,12.4,14,995.34,11.3,59,12.87,0.0,1022.22,38.0
2019-05-27 03:30,50.630435,-96.9807633333333,12.5,15.9,9,995.36,11.3,58,12.86,0.0,1022.26,38.0
2019-05-27 03:40,50.6304333333333,-96.9807666666667,13.8,15.8,13,995.40,11.2,60,12.85,0.0,1022.31,38.0
2019-05-27 03:50,50.6304316666667,-96.980765,13.1,14.9,12,995.51,11.0,62,12.85,0.0,1022.44,38.0
2019-05-27 04:00,50.6304533333333,-96.9808116666667,12.5,14.7,10,995.66,10.9,64,12.85,0.0,1022.61,280.0
2019-05-27 04:10,50.6304416666667,-96.9807583333333,15.3,18.5,10,995.64,10.6,63,12.84,0.0,1022.61,280.0
2019-05-27 04:20,50.6304433333333,-96.9807516666667,14.1,16.8,11,995.68,10.4,65,12.83,0.0,1022.66,280.0
2019-05-27 04:30,50.630425,-96.9807083333333,15.1,17.8,10,995.71,10.2,63,12.78,0.0,1022.71,280.0
2019-05-27 04:40,50.6304233333333,-96.9807533333333,14.4,17.2,10,995.75,10.0,64,12.75,0.0,1022.76,280.0
2019-05-27 04:50,50.63043,-96.98076,13.8,15.7,9,995.76,9.9,65,12.75,0.0,1022.77,280.0
2019-05-27 05:00,50.6304333333333,-96.98076,13.9,16.1,8,995.75,9.8,66,12.75,0.0,1022.77,212.5
2019-05-27 05:10,50.630435,-96.98076,15.1,17.2,7,995.64,9.8,65,12.79,0.0,1022.67,212.5
2019-05-27 05:20,50.630435,-96.9807616666667,14.1,16.4,9,995.74,9.7,66,12.82,0.0,1022.77,212.5
2019-05-27 05:30,50.630435,-96.98076,14.6,17.2,9,995.65,9.7,65,12.83,0.0,1022.68,212.5
2019-05-27 05:40,50.630435,-96.98076,14.7,16.8,9,995.56,9.7,64,12.83,0.0,1022.60,212.5
2019-05-27 05:50,50.630435,-96.98076,13.0,16.0,4,995.57,9.7,65,12.83,0.0,1022.62,212.5
2019-05-27 06:00,50.630435,-96.9807583333333,12.9,15.8,4,995.50,9.6,66,12.82,0.0,1022.56,360.0
2019-05-27 06:10,50.63045,-96.9807633333333,13.3,17.1,3,995.54,9.5,63,12.82,0.0,1022.62,360.0
2019-05-27 06:20,50.6304416666667,-96.9807666666667,14.9,17.1,6,995.55,9.5,61,12.80,0.0,1022.64,360.0
2019-05-27 06:30,50.6304383333333,-96.9807633333333,13.5,16.1,9,995.65,9.5,63,12.79,0.0,1022.76,360.0
2019-05-27 06:40,50.63044,-96.9807616666667,12.4,14.2,12,995.58,9.4,63,12.79,0.0,1022.69,360.0
2019-05-27 06:50,50.63044,-96.98076,12.2,14.1,14,995.45,9.3,66,12.78,0.0,1022.57,360.0
2019-05-27 07:00,50.6304383333333,-96.98076,11.2,12.7,10,995.46,9.3,68,12.78,0.0,1022.58,106.8
2019-05-27 07:10,50.63044,-96.9807583333333,11.4,13.7,22,995.29,9.4,68,12.77,0.0,1022.40,106.8
2019-05-27 07:20,50.630445,-96.9807533333333,11.8,14.3,29,995.08,9.7,66,12.76,0.0,1022.17,106.8
2019-05-27 07:30,50.630445,-96.9807633333333,13.5,15.8,29,994.91,9.7,65,12.75,0.0,1022.00,106.8
2019-05-27 07:40,50.6304466666667,-96.9807583333333,12.8,15.1,35,994.70,9.4,65,12.74,0.0,1021.80,106.8
2019-05-27 07:50,50.630445,-96.9807583333333,11.7,14.4,39,994.76,9.3,68,12.72,0.0,1021.87,106.8
2019-05-27 08:00,50.6304233333333,-96.9807533333333,10.9,12.8,33,994.76,9.3,67,12.71,0.0,1021.86,131.7
2019-05-27 08:10,50.6304283333333,-96.9807633333333,9.8,12.6,22,994.87,9.3,67,12.71,0.0,1021.99,131.7
2019-05-27 08:20,50.6304216666667,-96.9807366666667,10.2,12.0,27,994.68,9.2,68,12.70,0.0,1021.80,131.7
2019-05-27 08:30,50.6304433333333,-96.98076,9.7,11.8,30,994.48,9.2,69,12.70,0.0,1021.59,131.7
2019-05-27 08:40,50.6304416666667,-96.9807583333333,8.6,10.5,24,994.60,9.1,71,12.69,0.0,1021.73,131.7
2019-05-27 08:50,50.630425,-96.980755,8.6,10.9,23,994.56,9.2,73,12.69,0.0,1021.68,131.7
2019-05-27 09:00,50.630435,-96.9807566666667,9.4,11.3,11,994.53,9.1,73,12.69,0.0,1021.65,0.0
2019-05-27 09:10,50.6304383333333,-96.980755,9.2,11.0,12,994.38,9.1,74,12.68,0.0,1021.49,0.0
2019-05-27 09:20,50.63044,-96.9807566666667,8.7,10.2,16,994.37,9.1,74,12.67,0.0,1021.47,0.0
2019-05-27 09:30,50.6304416666667,-96.9807583333333,8.3,9.6,16,994.40,9.0,75,12.66,0.0,1021.52,0.0
2019-05-27 09:40,50.6304433333333,-96.98076,7.4,8.9,22,994.58,9.1,73,12.64,0.0,1021.71,0.0
2019-05-27 09:50,50.6304433333333,-96.98076,6.6,8.5,18,994.64,9.2,69,12.61,0.0,1021.76,0.0
2019-05-27 10:00,50.6304416666667,-96.9807583333333,5.2,7.5,11,994.70,9.2,68,12.60,0.0,1021.83,90.0
2019-05-27 10:10,50.6304416666667,-96.9807583333333,2.9,4.1,336,994.77,8.5,76,12.61,0.0,1021.93,90.0
2019-05-27 10:20,50.6304416666667,-96.98076,3.1,4.0,342,994.83,8.1,77,12.61,0.0,1022.01,90.0
2019-05-27 10:30,50.6304416666667,-96.98076,3.4,4.7,337,994.76,7.4,80,12.62,0.0,1021.98,90.0
2019-05-27 10:40,50.6304433333333,-96.98076,3.5,5.1,340,994.88,7.4,80,12.61,0.0,1022.10,90.0
2019-05-27 10:50,50.6304483333333,-96.9807866666667,3.6,5.4,331,994.82,7.0,78,12.54,0.0,1022.07,90.0
2019-05-27 11:00,50.63045,-96.9807733333333,2.8,3.9,315,994.69,5.1,84,12.50,0.0,1022.02,332.8
2019-05-27 11:10,50.6304583333333,-96.9807733333333,2.9,3.8,322,994.56,5.2,84,12.49,0.0,1021.89,332.8
2019-05-27 11:20,50.6304466666667,-96.9807683333333,1.9,3.2,322,994.54,5.1,84,12.49,0.0,1021.88,332.8
2019-05-27 11:30,50.630445,-96.9807666666667,2.1,4.1,327,994.57,5.4,84,12.48,0.0,1021.89,332.8
2019-05-27 11:40,50.6304483333333,-96.98075,2.5,3.4,346,994.58,6.1,83,12.48,0.0,1021.87,332.8
2019-05-27 11:50,50.6304483333333,-96.9807566666667,2.3,3.7,333,994.68,6.3,83,12.48,0.0,1021.96,332.8
2019-05-27 12:00,50.6304466666667,-96.9807583333333,3.3,4.9,336,994.67,6.7,83,12.48,0.0,1021.95,360.0
2019-05-27 12:10,50.6304816666667,-96.9808016666667,3.9,6.1,346,994.66,7.5,84,12.48,0.0,1021.92,360.0
2019-05-27 12:20,50.630455,-96.9807783333333,4.2,5.6,347,994.70,8.2,86,12.48,0.0,1021.97,360.0
2019-05-27 12:30,50.63043,-96.9807416666667,4.8,6.4,20,994.71,9.1,79,12.48,0.0,1021.93,360.0
2019-05-27 12:40,50.63044,-96.9807433333333,5.9,7.2,53,994.51,9.9,62,12.49,0.0,1021.70,360.0
2019-05-27 12:50,50.63044,-96.9807466666667,5.4,6.4,57,994.45,10.0,59,12.48,0.0,1021.74,360.0
2019-05-27 13:00,50.6304166666667,-96.9807016666667,4.9,5.9,61,994.52,10.2,57,12.46,0.0,1021.80,127.6
2019-05-27 13:10,50.6304383333333,-96.98077,4.6,5.7,56,994.55,10.1,56,12.45,0.0,1021.84,127.6
2019-05-27 13:20,50.6304416666667,-96.9807416666667,4.5,5.5,58,994.41,10.1,55,12.45,0.0,1021.68,127.6
2019-05-27 13:30,50.6304466666667,-96.980745,3.8,4.9,59,994.47,10.0,56,12.46,0.0,1021.71,127.6
2019-05-27 13:40,50.6293166666667,-96.9811366666667,3.3,4.5,79,994.47,10.1,56,12.48,0.4,1021.69,127.6
2019-05-27 13:50,50.6210116666667,-96.9599333333333,8.1,12.6,102,994.31,9.9,57,12.38,5.7,1021.51,127.6
2019-05-27 14:00,50.6210016666667,-96.9529833333333,4.1,12.1,90,994.45,10.0,57,12.03,1.6,1021.62,118.2
2019-05-27 14:10,50.6209966666667,-96.9529566666667,2.3,3.0,69,994.48,10.2,55,12.01,0.0,1021.61,118.2
2019-05-27 14:20,50.6210066666667,-96.9529483333333,2.3,3.2,71,994.50,10.4,55,12.02,0.0,1021.58,118.2
2019-05-27 14:30,50.621025,-96.9529683333333,2.0,3.0,84,994.48,10.4,56,12.03,0.0,1021.51,118.2
2019-05-27 14:40,50.621005,-96.9529516666667,2.2,3.1,79,994.43,10.5,57,12.05,0.0,1021.45,118.2
2019-05-27 14:50,50.6210333333333,-96.9529566666667,2.1,3.7,96,994.30,10.5,57,12.05,0.0,1021.31,118.2
2019-05-27 15:00,50.621025,-96.95295,2.3,3.3,81,994.19,10.6,57,12.05,0.0,1021.20,118.1
2019-05-27 15:10,50.62103,-96.952955,2.1,3.1,96,994.18,10.7,57,12.06,0.0,1021.18,118.1
2019-05-27 15:20,50.621035,-96.9529566666667,2.1,3.0,93,994.11,10.8,58,12.07,0.0,1021.11,118.1
2019-05-27 15:30,50.6210366666667,-96.9529583333333,2.5,3.6,86,994.02,10.8,59,12.13,0.0,1021.02,118.1
2019-05-27 15:40,50.621075,-96.9529516666667,2.9,3.9,82,993.80,10.7,60,12.19,0.0,1020.79,118.1
2019-05-27 15:50,50.6210716666667,-96.9529733333333,2.1,3.2,93,993.69,11.0,57,12.23,0.0,1020.67,118.1
2019-05-27 16:00,50.6211016666667,-96.9529716666667,2.4,3.2,109,993.54,11.3,56,12.18,0.0,1020.49,117.9
2019-05-27 16:10,50.62111,-96.9529733333333,3.1,4.6,104,993.40,11.5,53,12.29,0.0,1020.32,117.9
2019-05-27 16:20,50.6211133333333,-96.952975,3.3,4.3,95,993.17,11.5,54,12.67,0.0,1020.09,117.9
2019-05-27 16:30,50.6216766666667,-96.9655816666667,0.6,10.1,278,992.96,11.7,52,12.87,2.9,1019.86,117.9
2019-05-27 16:40,50.630195,-96.980755,2.6,9.4,324,992.88,11.8,51,12.50,4.6,1019.78,117.9
2019-05-27 16:50,50.63045,-96.9807783333333,2.1,2.8,77,992.78,12.6,55,12.76,0.1,1019.63,117.9
2019-05-27 17:00,50.6304283333333,-96.98074,2.2,3.2,109,992.68,13.7,44,12.73,0.0,1019.47,298.2
2019-05-27 17:10,50.6304533333333,-96.980775,1.9,2.8,93,992.50,15.0,36,12.73,0.0,1019.22,298.2
2019-05-27 17:20,50.630455,-96.9807716666667,2.0,3.5,79,992.32,15.2,34,12.71,0.0,1019.03,298.2
2019-05-27 17:30,50.6304533333333,-96.98077,2.2,3.6,87,992.11,15.2,32,12.70,0.0,1018.81,298.2
2019-05-27 17:40,50.630455,-96.9807683333333,4.8,6.0,76,991.80,15.2,27,12.70,0.0,1018.48,298.2
2019-05-27 17:50,50.6304533333333,-96.9807666666667,4.6,5.3,69,991.61,14.3,28,12.71,0.0,1018.31,298.2
2019-05-27 18:00,50.6304533333333,-96.9807666666667,4.1,5.0,75,991.35,14.2,30,12.74,0.0,1018.04,298.1
2019-05-27 18:10,50.630455,-96.9807683333333,3.8,4.7,83,991.23,14.9,29,12.74,0.0,1017.88,298.1
2019-05-27 18:20,50.630455,-96.98077,3.7,4.9,77,991.10,15.1,29,12.72,0.0,1017.74,298.1
2019-05-27 18:30,50.630455,-96.98077,3.7,5.1,84,990.98,15.4,29,12.73,0.0,1017.59,298.1
2019-05-27 18:40,50.630455,-96.98077,4.2,5.1,79,990.82,15.6,30,12.73,0.0,1017.38,298.1
2019-05-27 18:50,50.630455,-96.98077,4.2,5.5,82,990.59,15.7,29,12.73,0.0,1017.09,298.1
2019-05-27 19:00,50.630455,-96.98077,4.8,6.4,80,990.39,15.8,29,12.74,0.0,1016.82,298.0
2019-05-27 19:10,50.630455,-96.98077,5.9,7.0,77,990.23,15.4,31,12.74,0.0,1016.67,298.0
2019-05-27 19:20,50.630455,-96.98077,6.1,7.4,73,990.02,15.1,33,12.75,0.0,1016.46,298.0
2019-05-27 19:30,50.630455,-96.9807716666667,5.9,7.0,79,989.91,15.3,32,12.75,0.0,1016.34,298.0
2019-05-27 19:40,50.630455,-96.9807716666667,5.9,7.6,80,989.75,15.3,36,12.75,0.0,1016.22,298.0
2019-05-27 19:50,50.630445,-96.9807583333333,6.7,8.2,80,989.54,15.1,39,12.75,0.0,1016.02,298.0
2019-05-27 20:00,50.630495,-96.9808033333333,6.0,8.0,82,989.43,15.1,38,12.75,0.0,1015.87,328.6
2019-05-27 20:10,50.6304566666667,-96.9807516666667,5.8,7.2,88,989.33,15.4,38,12.78,0.0,1015.74,328.6
2019-05-27 20:20,50.63045,-96.9807516666667,6.7,8.6,85,989.13,15.4,40,12.89,0.0,1015.52,328.6
2019-05-27 20:30,50.630455,-96.98076,5.9,7.6,90,988.96,15.4,41,12.92,0.0,1015.34,328.6
2019-05-27 20:40,50.63045,-96.9807833333333,7.0,8.4,94,988.83,15.6,41,13.00,0.0,1015.19,328.6
2019-05-27 20:50,50.6304583333333,-96.9807783333333,8.6,10.2,96,988.64,15.9,42,13.01,0.0,1014.98,328.6
2019-05-27 21:00,50.6304616666667,-96.9807733333333,8.7,10.1,94,988.51,15.8,43,13.01,0.0,1014.87,360.0
2019-05-27 21:10,50.63042,-96.9807516666667,7.9,9.2,96,988.46,16.0,43,12.99,0.0,1014.82,360.0
2019-05-27 21:20,50.6304633333333,-96.9807733333333,7.4,8.4,105,988.42,15.9,46,13.00,0.0,1014.77,360.0
2019-05-27 21:30,50.6304816666667,-96.9807933333333,7.4,8.7,112,988.32,15.5,48,13.01,0.0,1014.69,360.0
2019-05-27 21:40,50.63046,-96.980775,8.2,9.1,116,988.18,15.3,45,13.01,0.0,1014.56,360.0
2019-05-27 21:50,50.6304583333333,-96.980765,7.4,8.5,115,988.11,15.5,42,12.98,0.0,1014.49,360.0
2019-05-27 22:00,50.6304616666667,-96.9807633333333,7.1,8.2,121,987.99,15.6,42,13.21,0.0,1014.34,360.0
2019-05-27 22:10,50.6304683333333,-96.9807583333333,7.1,8.1,117,987.88,15.7,43,13.67,0.0,1014.22,360.0
2019-05-27 22:20,50.63047,-96.9807566666667,6.8,8.0,118,987.74,15.9,43,13.88,0.0,1014.08,360.0
2019-05-27 22:30,50.6304616666667,-96.9807683333333,6.4,7.6,119,987.66,16.0,41,13.81,0.0,1013.97,360.0
2019-05-27 22:40,50.6304616666667,-96.9807716666667,6.2,7.2,124,987.58,16.1,39,13.70,0.0,1013.87,360.0
2019-05-27 22:50,50.6304616666667,-96.9807716666667,7.0,8.3,122,987.43,16.1,43,13.45,0.0,1013.73,360.0
2019-05-27 23:00,50.6304616666667,-96.9807716666667,7.1,8.5,127,987.32,16.3,41,13.32,0.0,1013.59,135.7
2019-05-27 23:10,50.6304616666667,-96.98077,6.7,7.9,116,987.16,16.4,47,13.35,0.0,1013.44,135.7
2019-05-27 23:20,50.6304466666667,-96.9807616666667,7.2,8.7,114,987.03,16.4,45,13.40,0.0,1013.31,135.7
2019-05-27 23:30,50.6304716666667,-96.9807766666667,6.8,8.0,116,986.93,16.5,46,13.63,0.0,1013.22,135.7
2019-05-27 23:40,50.630465,-96.980775,6.6,7.7,122,986.92,16.4,49,13.85,0.0,1013.20,135.7
2019-05-27 23:50,50.6304516666667,-96.9807583333333,7.5,8.4,122,986.85,16.5,43,13.77,0.0,1013.12,135.7
